Wichita, KS

9:24 AM CDT on October 22, 2017 (GMT -0500)
Wichita Eisenhower National Airport

Weather History for KICT - April, 2014

Change the Weather History Date:

Sunday, April 13, 2014

  Actual Average Record
Temperature  
Mean Temperature 59 °F 55 °F  
Max Temperature 82 °F 67 °F 96 °F (2006)
Min Temperature 36 °F 44 °F 21 °F (1997)
Degree Days  
Heating Degree Days 6 10  
Month to date heating degree days 129 158  
Since 1 July heating degree days 4725 4375  
Cooling Degree Days 0 1  
Month to date cooling degree days 9 6  
Year to date cooling degree days 9 8  
Growing Degree Days 9 (Base 50)    
Moisture  
Dew Point 50 °F    
Average Humidity 67    
Maximum Humidity 82    
Minimum Humidity 51    
Precipitation  
Precipitation 0.01 in 0.08 in 1.58 in (2007)
Month to date precipitation 0.42 0.98  
Year to date precipitation 1.90 5.68  
Snow  
Snow 0.00 in 0.00 in 0.50 in (2007)
Month to date snowfall 0.0 0.2  
Since 1 July snowfall 22.7 14.9  
Snow Depth 0.00 in    
Sea Level Pressure  
Sea Level Pressure 29.55 in    
Wind  
Wind Speed 22 mph (WNW)    
Max Wind Speed 37 mph    
Max Gust Speed 47 mph    
Visibility 9 miles    
Events Rain , Hail , Thunderstorm    
T = Trace of Precipitation, MM = Missing Value Source: NWS Daily Summary

Daily Weather History Graph

Daily Weather History Graph

Search for Another Location

Airport or City:

Trip Planner

Search our weather history database for the weather conditions in past years. The results will help you decide how hot, cold, wet, or windy it might be!

Date:

Astronomy

Apr. 13, 2014 Rise Set
Actual Time 6:57 AM CDT 8:03 PM CDT
Civil Twilight 6:30 AM CDT 8:30 PM CDT
Nautical Twilight 5:58 AM CDT 9:02 PM CDT
Astronomical Twilight 5:25 AM CDT 9:36 PM CDT
Moon 6:44 PM CDT (4/13) 5:55 AM CDT (4/13)
Length of Visible Light 13h 59m
Length of Day
13h 06m
Waxing Gibbous, 97% of the Moon is Illuminated
Apr 13
Waxing Gibbous
Apr 15
Full
Apr 22
Last Quarter
Apr 29
New
May 6
First Quarter

Hourly Weather History & Observations

Time (CDT) Temp. Windchill Dew Point Humidity Pressure Visibility Wind Dir Wind Speed Gust Speed Precip Events Conditions
12:53 AM 70.0 °F - 57.9 °F 65% 29.49 in 10.0 mi South 17.3 mph - N/A   Mostly Cloudy
1:53 AM 71.1 °F - 59.0 °F 66% 29.49 in 10.0 mi South 12.7 mph - N/A   Mostly Cloudy
2:53 AM 69.1 °F - 59.0 °F 70% 29.47 in 10.0 mi South 9.2 mph - N/A   Mostly Cloudy
3:53 AM 69.1 °F - 59.0 °F 70% 29.45 in 10.0 mi SSE 9.2 mph - N/A   Overcast
4:53 AM 69.1 °F - 59.0 °F 70% 29.44 in 10.0 mi South 11.5 mph - N/A   Overcast
5:53 AM 69.1 °F - 59.0 °F 70% 29.42 in 10.0 mi South 12.7 mph - N/A   Overcast
6:53 AM 70.0 °F - 57.9 °F 65% 29.42 in 10.0 mi South 13.8 mph - N/A   Overcast
7:53 AM 71.1 °F - 60.1 °F 68% 29.42 in 8.0 mi South 17.3 mph - N/A   Mostly Cloudy
8:53 AM 70.0 °F - 60.1 °F 71% 29.42 in 8.0 mi South 25.3 mph 33.4 mph N/A   Mostly Cloudy
9:53 AM 75.0 °F - 61.0 °F 62% 29.42 in 9.0 mi South 31.1 mph 40.3 mph N/A   Mostly Cloudy
10:37 AM 75.0 °F - 61.0 °F 62% 29.47 in 9.0 mi South 25.3 mph 38.0 mph N/A   Mostly Cloudy
10:53 AM 75.0 °F - 61.0 °F 62% 29.44 in 8.0 mi South 32.2 mph 36.8 mph N/A   Mostly Cloudy
11:30 AM 75.9 °F - 62.1 °F 62% 29.48 in 8.0 mi South 26.5 mph 34.5 mph N/A   Mostly Cloudy
11:53 AM 75.0 °F - 62.1 °F 64% 29.44 in 8.0 mi South 23.0 mph 31.1 mph N/A   Mostly Cloudy
12:53 PM 82.0 °F - 62.1 °F 51% 29.38 in 9.0 mi South 24.2 mph - N/A   Mostly Cloudy
1:15 PM 75.9 °F - 62.1 °F 62% 29.43 in 7.0 mi South 17.3 mph 28.8 mph 0.00 in Rain , Thunderstorm Light Thunderstorms and Rain
1:24 PM 66.9 °F - 57.9 °F 73% 29.44 in 6.0 mi NW 19.6 mph 39.1 mph 0.00 in Rain , Thunderstorm Light Thunderstorms and Rain
1:33 PM 59.0 °F - 54.0 °F 83% 29.46 in 6.0 mi NW 29.9 mph 36.8 mph 0.00 in Rain , Hail , Thunderstorm Light Thunderstorms with Hail
1:42 PM 57.9 °F - 53.1 °F 84% 29.47 in 6.0 mi NW 26.5 mph 35.7 mph 0.00 in Rain , Thunderstorm Light Thunderstorms and Rain
1:53 PM 57.0 °F - 52.0 °F 83% 29.44 in 6.0 mi NNW 23.0 mph 35.7 mph 0.00 in Rain , Thunderstorm Light Thunderstorms and Rain
2:08 PM 60.1 °F - 54.0 °F 80% 29.47 in 7.0 mi NNW 21.9 mph 27.6 mph 0.01 in   Mostly Cloudy
2:53 PM 62.1 °F - 50.0 °F 65% 29.46 in 7.0 mi NNW 32.2 mph 40.3 mph 0.01 in   Mostly Cloudy
3:53 PM 54.0 °F - 46.0 °F 75% 29.52 in 8.0 mi North 25.3 mph 38.0 mph N/A   Overcast
4:53 PM 52.0 °F - 44.1 °F 74% 29.57 in 9.0 mi NNW 26.5 mph 34.5 mph N/A   Overcast
5:23 PM 48.9 °F - 42.1 °F 77% 29.63 in 8.0 mi NNW 35.7 mph 41.4 mph N/A   Overcast
5:53 PM 46.9 °F - 39.0 °F 74% 29.64 in 7.0 mi NNW 32.2 mph 40.3 mph N/A   Overcast
6:53 PM 42.1 °F 32.3 °F 35.1 °F 76% 29.70 in 9.0 mi NNW 24.2 mph 40.3 mph N/A   Overcast
7:43 PM 39.9 °F 28.4 °F 33.1 °F 77% 29.77 in 10.0 mi NNW 29.9 mph 36.8 mph N/A   Overcast
7:53 PM 39.0 °F 28.0 °F 33.1 °F 79% 29.78 in 10.0 mi NNW 25.3 mph 36.8 mph N/A   Overcast
8:09 PM 39.0 °F 27.6 °F 30.9 °F 73% 29.78 in 9.0 mi North 27.6 mph 43.7 mph N/A   Overcast
8:53 PM 37.9 °F 26.6 °F 32.0 °F 79% 29.80 in 10.0 mi NNW 25.3 mph 33.4 mph N/A   Overcast
9:53 PM 37.9 °F 27.6 °F 30.0 °F 73% 29.85 in 10.0 mi North 20.7 mph 36.8 mph N/A   Overcast
10:53 PM 37.9 °F 27.6 °F 30.9 °F 76% 29.87 in 10.0 mi NNW 20.7 mph 31.1 mph N/A   Overcast
11:38 PM 36.0 °F 23.9 °F 30.0 °F 79% 29.86 in 10.0 mi North 25.3 mph 36.8 mph N/A   Overcast
11:53 PM 36.0 °F 23.9 °F 30.0 °F 79% 29.86 in 10.0 mi North 25.3 mph 38.0 mph 0.00 in   Light Drizzle